Location: Bas-Clignon
(44.2000°N, 6.6333°E)
Time: 02:44:38
(UTC+00:00)

RESURS DK-1 - Pass Details

Date: 03 February 2023
Orbit: 549 x 558 km, 69.9° (Epoch: 27 March)

Event Time Altitude Azimuth Distance (km) Brightness Sun altitude
Rises 18:15:02 0° 335° (NNW) 2,738 6.1 -16.3°
Reaches altitude 10° 18:17:15 10° 338° (NNW) 1,841 5.2 -16.7°
Maximum altitude 18:21:21 69° 61° (ENE) 598 2.2 -17.4°
Enters shadow 18:24:06 20° 142° (SE) 1,314 3.9 -17.9°
